Regional Weather Roundup
Issued by NWS

Home | Current Version | Previous Version | Text Only | Print | Product List | Glossary On
Versions: 1 2 3 4 5 6 7 8 9 10 11 12 13 14 15 16 17 18 19 20 21 22 23 24 25 26 27 28 29 30 31 32 33 34 35 36 37 38 39 40 41 42 43 44 45 46 47 48 49 50
000
ASUS46 KLOX 301013
RWRCA

SOUTHERN CALIFORNIA WEATHER ROUNDUP
NATIONAL WEATHER SERVICE OXNARD CALIFORNIA
300 AM PDT SAT APR 30 2016

NOTE: "FAIR" INDICATES FEW OR NO CLOUDS BELOW 12,000 FEET WITH NO
SIGNIFICANT WEATHER AND/OR OBSTRUCTIONS TO VISIBILITY.

  -  STATIONS PRECEEDED BY AN ASTERISK (*) ARE NOT NWS OR FAA
     STATIONS AND ARE NOT SUBJECT TO NWS AND FAA QUALITY CONTROL.

CAZ041-042-087-301100-
LA AND ORANGE COUNTY COASTAL AREAS


CITY           SKY/WX    TMP DP  RH WIND       PRES   REMARKS
L.A. DOWNTOWN  CLOUDY    57  51  80 CALM      29.84F
L.A. AIRPORT   CLOUDY    57  49  74 S7        29.84F
LONG BEACH     CLOUDY    58  51  78 VRB5      29.85F

CITY           SKY/WX    TMP DP  RH WIND       PRES   REMARKS
AVALON           N/A     54 N/A N/A SE1         N/A
FULLERTON      CLOUDY    58  52  80 CALM      29.84F
*GETTY CENTER    N/A    N/A N/A N/A SE3         N/A
HAWTHORNE      CLOUDY    57  50  77 VRB3      29.85F
*LEO CARRILLO    N/A     53  49  86 CALM        N/A
*LOS ALAMITOS  FAIR      58  52  80 SW5       29.84F
*REDONDO BEACH   N/A     56  51  82 CALM      29.84F
SANTA ANA      CLOUDY    58  51  78 SW6       29.85F
STA MONICA APT CLOUDY    56  50  80 CALM      29.85F
*UCLA            N/A     55  48  76 SE6       29.81F

$$

CAZ547-548-048-301100-
LA COUNTY VALLEYS AND INLAND EMPIRE


CITY           SKY/WX    TMP DP  RH WIND       PRES   REMARKS
BURBANK        CLOUDY    54  48  80 SE6       29.83F
VAN NUYS       CLOUDY    54  49  83 SE6       29.83F

CITY           SKY/WX    TMP DP  RH WIND       PRES   REMARKS
CORONA AIRPORT CLOUDY    55  51  86 CALM      29.84F
*CHATSWORTH      N/A     54  48  80 SE3       29.85S
CHINO          CLOUDY    57  51  80 SW8       29.85F
*CLAREMONT       N/A     51  50  96 SW2         N/A
MARCH AFB      CLOUDY    55  50  84 S6        29.84F
*NORTHRIDGE      N/A     54  46  76 E2          N/A
ONTARIO        MOCLDY    55  49  80 W9        29.84F
*PASADENA        N/A     55  52  88 E2          N/A
RIVERSIDE      CLOUDY    56  49  77 CALM      29.84F
SAN BERNARDINO NOT AVBL
*SAN GABRIEL     N/A     56  51  82 CALM      29.91F
*SAN RAFAEL HI   N/A     50  50 100 S6          N/A
*SAUGUS          N/A     51  47  87 N2          N/A
*WHITEMAN AP   NOT AVBL
*WHITTIER HILL   N/A     52  49  89 S2          N/A
*WOODLAND HILL   N/A     52  48  87 SE1         N/A

$$

CAZ054-055-301100-
LA AND SAN BERNARDINO COUNTY MOUNTAINS


CITY           SKY/WX    TMP DP  RH WIND       PRES   REMARKS
*ACTON           N/A     44  42  94 CALM        N/A
*BIG BEAR AIRP SUNNY     36  32  87 W8        29.85F WCI  29
*BIG PINES       N/A     38  30  73 CALM        N/A
*CHILAO          N/A     42  39  90 CALM        N/A
SANDBERG       CLEAR     45  25  45 NW18      29.85F
*WARM SPRINGS    N/A     44  31  59 SW10        N/A

$$

CAZ028-029-059-060-099-301100-
ANTELOPE VALLEY AND SURROUNDING AREAS


CITY           SKY/WX    TMP DP  RH WIND       PRES   REMARKS
LANCASTER      CLEAR     55  28  35 W20       29.80F
PALMDALE       CLEAR     55  33  43 W21       29.80F
*POPPY PARK      N/A     53  26  35 W9G25       N/A

CITY           SKY/WX    TMP DP  RH WIND       PRES   REMARKS
29 PALMS       CLEAR     62  35  36 N16       29.78F
BARSTOW/DAGGET CLEAR     63  36  36 SW32G43   29.68R
BISHOP         CLOUDY    49  33  54 N18       29.88R
CHINA LAKE     CLEAR     62  25  24 NW13      29.71R
EDWARDS AFB    CLEAR     56  34  44 SW23      29.72F
MOJAVE         CLEAR     54  37  54 W16G22    29.81S
NEEDLES        CLEAR     70  36  28 SW10      29.65S
VICTORVILLE    CLEAR     55  37  50 W18G24    29.77F

$$

CAZ039-040-301100-
VENTURA AND SANTA BARBARA COUNTY COAST


CITY           SKY/WX    TMP DP  RH WIND       PRES   REMARKS
CAMARILLO      CLEAR     52  46  80 NE7       29.83F
NWS OXNARD       N/A     50  45  84 CALM      29.82F
OXNARD AIRPORT CLOUDY    53  48  83 NE7       29.83F
*POINT MUGU    CLOUDY    53  49  86 NE3       29.84F
SBA APT/GOLETA CLEAR     51  45  79 VRB3      29.83F
*SANTA BARBARA   N/A     53  46  77 CALM      29.91S
*VENTURA         N/A     50  47  90 CALM      29.82S

$$

CAZ044-045-301100-
VENTURA COUNTY VALLEYS


CITY           SKY/WX    TMP DP  RH WIND       PRES   REMARKS
*SIMI VALLEY     N/A     53  49  85 E7        29.79F
*WESTLAKE VILL   N/A     45  42  89 CALM      29.82F
*OJAI            N/A     43  41  91 CALM      29.79S
*FILLMORE        N/A     49  44  83 CALM      29.73F

$$

CAZ053-301100-
VENTURA COUNTY MOUNTAINS


CITY           SKY/WX    TMP DP  RH WIND       PRES   REMARKS
*LOCKWOOD VLY    N/A     41  19  42 N1          N/A
*ROSE VALLEY     N/A     34  32  93 MISG        N/A

$$

CAZ034-035-036-301100-
CENTRAL COAST AND SANTA YNEZ VALLEY


CITY           SKY/WX    TMP DP  RH WIND       PRES   REMARKS
SAN LUIS OBISP CLOUDY    54  47  77 NW5       29.90F
SANTA MARIA    CLOUDY    53  48  83 NW9       29.90F

CITY           SKY/WX    TMP DP  RH WIND       PRES   REMARKS
*CAL POLY SLO    N/A     52  48  87 E2          N/A
*LOMPOC        MOCLDY    52  47  83 NW15      29.90F
*PISMO BEACH     N/A     53  48  84 W2        29.90F
*SANTA YNEZ    CLOUDY    50  43  76 N3        29.87F

$$

CAZ037-038-051-301100-
SAN LUIS OBISPO COUNTY INTERIOR AND CUYAMA VALLEY


CITY           SKY/WX    TMP DP  RH WIND       PRES   REMARKS
*CUYAMA          N/A     44  42  94 CALM      29.81F
PASO ROBLES    MOCLDY    48  44  86 W7        29.88F

$$

CAZ032-033-061-301100-
SOUTHERN DESERTS


CITY           SKY/WX    TMP DP  RH WIND       PRES   REMARKS
BLYTHE         CLEAR     66  44  45 S15       29.67F
IMPERIAL       CLEAR     67  41  38 W22G32    29.68F
PALM SPRINGS   CLEAR     63  48  58 SE5       29.68F
THERMAL        CLEAR     67  47  48 NW10      29.65F

$$

ELSEWHERE ACROSS THE WESTERN UNITED STATES AND MEXICO


CITY           SKY/WX    TMP DP  RH WIND       PRES   REMARKS
DEATH VALLEY,    N/A     69  43  39 NE2         N/A
DENVER, CO     LGT SNOW  32  29  88 N12       29.87S VSB 1   WCI  23
GRAND CANYON,  CLOUDY    37  34  89 CALM      29.85F
HONOLULU, HI   PTCLDY    75  66  73 NE12G21   30.08F
KAHULUI, MAUI  CLEAR     73  64  73 NE14      30.08F
LAKE TAHOE, CA CLOUDY    33  31  92 VRB3      30.00F
LAS VEGAS, NV  CLOUDY    57  46  66 N23G32    29.69S
MAMMOTH LAKES, LGT SNOW  32  30  92 W10G18    29.96F WCI  24
MEXICO CITY, M   N/A    N/A N/A N/A MISG        N/A
PHOENIX, AZ    PTCLDY    70  37  29 N5        29.73F
PORTLAND, OR   MOCLDY    48  41  76 NW3       30.30R
RENO, NV       MOCLDY    44  32  62 N9        30.03S
SALT LAKE CITY MOCLDY    48  39  71 N3        29.86R
SAN DIEGO, CA  CLOUDY    60  49  66 SW14      29.90F
SAN FRANCISCO, CLEAR     50  43  77 W14       29.94F
SAN JOSE, CA   CLEAR     52  44  74 NW6       29.94F
SEATTLE, WA    PTCLDY    50  43  77 NE5       30.29R
TIJUANA, MEX   CLOUDY    55  45  67 CALM      29.91F

$$

STATION/POSITION TIME  TEMP    WIND        PRES    VSBY  WAVE
                       AIR SEA DIR/SP/G                  HT/PER
                 (UTC) (F)     (DEG/KT/KT) (MB)    (MI)  (FT/S)
POINT ARGUELLO B NOT AVBL
WEST SANTA BARBA 0950   53 51  320/ 23/ 29 1011.1F        10/ 9
POINT CONCEPTION NOT AVBL
EAST SANTA BARBA 0900   55 56  300/ 17/ 21 1011.4F
SANTA MONICA BAY 0950   56 58   90/  2/  4 1010.6F         5/ 7



USA.gov is the U.S. government's official web portal to all federal, state and local government web resources and services.